Regional Weather Roundup
Issued by NWS

Home | Current Version | Previous Version | Text Only | Print | Product List | Glossary Off
Versions: 1 2 3 4 5 6 7 8 9 10 11 12 13 14 15 16 17 18 19 20 21 22 23 24 25 26 27 28 29 30 31 32 33 34 35 36 37 38 39 40 41 42 43 44 45 46 47 48 49 50

565
ASUS43 KMPX 110601
RWRMN
WEATHER ROUNDUP FOR MINNESOTA
NATIONAL WEATHER SERVICE TWIN CITIES/CHANHASSEN MN
1200 AM CST THU FEB 11 2016


NOTE: "FAIR" INDICATES FEW OR NO CLOUDS BELOW 12,000 FEET WITH NO
SIGNIFICANT WEATHER AND/OR OBSTRUCTIONS TO VISIBILITY. N/A MEANS
CURRENT SKY AND/OR WEATHER CONDITIONS ARE NOT AVAILABLE.

MNZ060>063-068>070-110700-
   Twin Cities Metro

CITY           SKY/WX    TMP DP  RH WIND       PRES   REMARKS
TWIN CITIES    CLEAR      8  -4  58 NW6       30.28R WCI  -2
6HR MIN TEMP:   8; 6HR MAX TEMP:  12;

ST PAUL        CLEAR      8  -4  58 NW7       30.30R WCI  -3
CRYSTAL        CLEAR      6  -4  63 CALM      30.27R
BLAINE         CLEAR      7  -2  66 CALM      30.27R
LAKEVILLE      CLEAR      5  -2  72 W3        30.27R
EDEN PRAIRIE   CLEAR      8  -3  61 NW5       30.27R WCI   0
6HR MIN TEMP:   8; 6HR MAX TEMP:  13;

SOUTH ST PAUL  CLEAR      8  -3  62 CALM      30.28R
LAKE ELMO      FAIR       3  -2  78 CALM      30.27S
$$
MNZ001>005-007-008-013>017-022>024-027-028-110700-
   Northwest Minnesota

CITY           SKY/WX    TMP DP  RH WIND       PRES   REMARKS
BEMIDJI        CLOUDY   -11 -15  82 CALM      30.24R
HALLOCK        CLOUDY    -6  -9  84 CALM      30.30S
ROSEAU         CLOUDY   -11 -17  77 CALM      30.26F
WARROAD        CLOUDY    -9 -17  70 SW5       30.26S WCI -21
THIEF RVR FALL CLOUDY    -2 -15  55 CALM      30.28S
CROOKSTON      CLOUDY     0  -6  78 CALM      30.31S
FOSSTON        CLOUDY   -13 -18  77 CALM      30.27R
DETROIT LAKES  CLOUDY     3   0  85 CALM      30.26S
MOORHEAD       CLOUDY     7  -2  66 NE5       30.30R WCI  -2
PARK RAPIDS    CLOUDY    -4 -10  75 W5        30.23R WCI -15
MAHNOMEN       FAIR      -4  -9  79 CALM      30.26S
$$
MNZ006-009>011-018-025>026-110700-
   North Central Minnesota

CITY           SKY/WX    TMP DP  RH WIND       PRES   REMARKS
BAUDETTE       CLOUDY   -16 -23  70 CALM      30.24F
FLAG ISLAND    CLOUDY   -11 -17  77 CALM      30.24F
INTL FALLS     CLOUDY   -21 -26  77 CALM      30.23R
6HR MIN TEMP: -23; 6HR MAX TEMP:  -8;

WASKISH        CLOUDY   -17 -20  83 CALM      30.25S
LONGVILLE      CLOUDY    -9 -13  84 CALM      30.23S
GRAND RAPIDS   CLOUDY    -8 -18  59 CALM      30.21S
CRANE LAKE     CLOUDY   -24 -29  76 CALM      30.26R
ORR            CLOUDY   -15 -20  76 CALM      30.18F
COOK           CLOUDY   -22 -27  76 CALM      30.21S
WALKER         FAIR      -7 -12  81 W3        30.23S
$$
MNZ012-019>021-037-110700-
   Northeast Minnesota

CITY           SKY/WX    TMP DP  RH WIND       PRES   REMARKS
DULUTH         CLOUDY    -5 -12  72 N8        30.18R WCI -20
6HR MIN TEMP:  -5; 6HR MAX TEMP:   5;

ELY            CLOUDY   -18 -24  76 CALM      30.19S
HIBBING        CLOUDY   -18 -22  82 W5        30.21R WCI -31
EVELETH        PTCLDY   -15 -18  84 CALM      30.20S
DULUTH HARBOR  CLEAR      3  -6  66 NW5       30.28R WCI  -6
TWO HARBORS    CLEAR      0  -9  65 N3        30.18R
SILVER BAY     CLEAR     -6 -11  77 CALM      30.17S
GRAND MARAIS     N/A     -1 -10  65 N5        30.23R WCI -11
G MARAIS ARPRT CLEAR     -8 -15  71 NW12G20   30.07S WCI -27
$$
MNZ029>031-032-039>041-046>048-054>057-064-110700-
   West Central Minnesota

CITY           SKY/WX    TMP DP  RH WIND       PRES   REMARKS
FERGUS FALLS   CLOUDY     9   1  72 CALM      30.30S
WHEATON        CLOUDY     7   3  85 CALM      30.31R
MORRIS         CLOUDY    10   5  79 NW3       30.26R
ALEXANDRIA     CLOUDY     8  -2  63 N5        30.24R WCI   0
ELBOW LAKE     MOCLDY    10   3  72 CALM      30.27R HAZE
WADENA         CLOUDY     1  -6  71 CALM      30.25R
GLENWOOD       CLOUDY     9   1  72 N3        30.25R
APPLETON       CLOUDY    10   5  79 NW6       30.28R WCI   1
BENSON         CLOUDY    10   5  79 CALM      30.27R
ORTONVILLE     CLOUDY    10   3  72 NW5       30.27R WCI   2
MADISON        CLOUDY    12   7  79 N5        30.28R WCI   4
WILLMAR        CLOUDY    12   3  67 CALM      30.27S
$$
MNZ033>034-036-042>043-049>051-058-059-110700-
   Central Minnesota

CITY           SKY/WX    TMP DP  RH WIND       PRES   REMARKS
ST CLOUD       MOCLDY     5  -3  69 NW5       30.26R WCI  -4
6HR MIN TEMP:   5; 6HR MAX TEMP:  11;

SAUK CENTRE    CLOUDY     7  -4  61 N3        30.25S
PAYNESVILLE    CLOUDY     4  -1  81 CALM      30.26R
AITKIN         CLOUDY    -8 -15  71 CALM      30.22S
PINE RIVER     CLOUDY    -6  -9  84 CALM      30.27S
BRAINERD       CLEAR     -4 -10  75 SW6       30.25R WCI -16
STAPLES        CLOUDY     1  -8  66 CALM      30.25S
LONG PRAIRIE   CLOUDY     5  -4  66 NW3       30.25R
LITTLE FALLS   PTCLDY     5  -6  61 CALM      30.28R
LITCHFIELD     CLEAR      9   0  66 CALM      30.26S
BUFFALO        CLEAR      6  -3  67 CALM      30.28S
MAPLE LAKE     CLEAR      5   0  77 CALM      30.27S
$$
MNZ037-044-045-052-053-110700-
   East Central Minnesota

CITY           SKY/WX    TMP DP  RH WIND       PRES   REMARKS
PRINCETON      PTCLDY     1  -6  71 CALM      30.26S
MORA           CLEAR      0  -8  71 CALM      30.27S
CAMBRIDGE      CLEAR      1  -8  66 CALM      30.26R
RUSH CITY      PTCLDY     4  -7  60 NW3       30.27R
MOOSE LAKE     MOCLDY    -2  -9  71 CALM      30.22S
HINCKLEY       FAIR       3  -8  60 CALM      30.26R
CLOQUET        CLEAR     -4 -11  71 W6        30.21R WCI -16
MCGREGOR       CLOUDY    -4  -8  84 NW6       30.24R WCI -16
$$
MNZ071>073-080-081-089-090-097-098-110700-
   Southwest Minnesota

CITY           SKY/WX    TMP DP  RH WIND       PRES   REMARKS
MONTEVIDEO     CLOUDY     9   3  78 N3        30.29R
GRANITE FALLS  CLOUDY     7   2  81 N3        30.29R
CANBY          CLOUDY    15  10  79 CALM      30.28R
MARSHALL       CLOUDY    11   6  81 N6        30.26R WCI   1
REDWOOD FALLS  CLOUDY    11   3  70 CALM      30.26S
OLIVIA         CLOUDY    10   5  79 N3        30.26S
PIPESTONE      CLOUDY    12   1  62 E7        30.20R WCI   2
WINDOM         CLOUDY    10   5  79 CALM      30.22S
WORTHINGTON    CLOUDY    10   3  72 NE9       30.21F WCI  -2
JACKSON        CLOUDY    12   5  73 N7        30.22S WCI   2
TRACY          CLOUDY    13   8  80 N6        30.24S WCI   4
SLAYTON        CLOUDY    11   7  85 CALM      30.22R
$$
MNZ065>067-074>077-082>085-091>093-110700-
   South Central Minnesota

CITY           SKY/WX    TMP DP  RH WIND       PRES   REMARKS
MANKATO        CLOUDY     9  -2  61 N5        30.25S WCI   0
NEW ULM        CLOUDY     7   0  72 CALM      30.26S
ST JAMES       CLOUDY     7   3  85 CALM      30.27R
FAIRMONT       CLOUDY     7   0  72 NW5       30.24R WCI  -2
GLENCOE        MOCLDY    10   4  77 CALM      30.26S
FARIBAULT        N/A      3  -2  78 CALM      30.26R
OWATONNA       CLOUDY     7  -2  66 CALM      30.24R
WASECA         CLOUDY     5   0  78 CALM      30.26S
ALBERT LEA     CLOUDY     5  -2  72 N7        30.22S WCI  -7
$$
MNZ078>079-086>088-094>096-110700-
   Southeast Minnesota

CITY           SKY/WX    TMP DP  RH WIND       PRES   REMARKS
ROCHESTER      CLOUDY     5  -3  69 N8        30.21S WCI  -8
6HR MIN TEMP:   5; 6HR MAX TEMP:   7;

RED WING       CLEAR      7  -4  61 CALM      30.27R
STANTON        PTCLDY     6   0  74 CALM      30.25R
DODGE CENTER   CLOUDY     3  -4  72 N6        30.21R WCI  -8
WINONA         CLOUDY    10   1  67 NW3       30.28R
AUSTIN         CLOUDY     3  -2  78 N5        30.23R WCI  -6
PRESTON        CLOUDY     5  -3  69 N5        30.21R WCI  -4
$$
ABBREVIATIONS USED IN REMARKS
   TC - TEMPERATURES IN CELSIUS
  WCI - WIND CHILL INDEX
   HX - HEAT INDEX
  VSB - VISIBILITY
$$




USA.gov is the U.S. government's official web portal to all federal, state and local government web resources and services.